{"data":{"norad_id":32393,"intl_designator":"2007-065A","name":"COSMOS 2434 (721)","alt_names":[],"object_type":"PAYLOAD","status":"ACTIVE","operator":null,"country":"CIS","launch_date":"2007-12-25","launch_site_code":"TYMSC","launch_vehicle":null,"mission":null,"orbit_class":"UNKNOWN","rcs_meters":5.0119,"size_class":null,"mass_kg":null,"dimensions":null,"purposes":["nav"],"wikipedia_slug":null,"has_3d_model":false,"image_url":null,"decayed_at":null,"tle_current":{"epoch":"2026-05-25T04:02:14.133696Z","epoch_age_seconds":64487,"freshness":"FRESH","line1":"1 32393U 07065A   26145.16821914  .00000048  00000+0  00000+0 0  9998","line2":"2 32393  64.3161 192.6922 0001051 357.7939  81.0284  2.13101329143287","mean_motion":2.13101329,"eccentricity":0.0001051,"inclination_deg":64.3161,"raan_deg":192.6922,"arg_perigee_deg":357.7939,"mean_anomaly_deg":81.0284,"bstar":0,"rev_number":14328,"period_min":675.73487540287,"perigee_km":19127.260073879,"apogee_km":19132.621871868,"semimajor_km":25508.077972874,"source":"CELESTRAK","updated_at":"2026-05-25T13:38:23.889135Z"}}}